This is the latest recevied weather packets stored in our database for station/object SA6BET-2. If no packets are shown the sender has not sent any weather packets the latest 10 day(s).
| Time | Temp. | Humidity | Pressure | Rain* | Wind** | Luminosity | Snow |
|---|---|---|---|---|---|---|---|
| 1778159067 | 17.78° C | 100% | 1013.9 hPa | - | - | - | - |
| 1778158167 | 18.33° C | 100% | 1014.1 hPa | - | - | - | - |
| 1778157267 | 18.89° C | 100% | 1014.1 hPa | - | - | - | - |
| 1778156366 | 18.89° C | 100% | 1014.1 hPa | - | - | - | - |
| 1778155477 | 18.89° C | 100% | 1014.1 hPa | - | - | - | - |
| 1778154576 | 18.89° C | 100% | 1014.3 hPa | - | - | - | - |
| 1778153676 | 18.89° C | 100% | 1014.1 hPa | - | - | - | - |
| 1778152775 | 18.89° C | 100% | 1014.3 hPa | - | - | - | - |
| 1778151875 | 19.44° C | 100% | 1014.6 hPa | - | - | - | - |
| 1778150975 | 19.44° C | 100% | 1014.6 hPa | - | - | - | - |
| 1778150074 | 18.89° C | 100% | 1014.7 hPa | - | - | - | - |
| 1778149174 | 18.33° C | 100% | 1014.8 hPa | - | - | - | - |
| 1778148274 | 18.33° C | 100% | 1014.7 hPa | - | - | - | - |
| 1778147374 | 18.33° C | 100% | 1014.8 hPa | - | - | - | - |
| 1778147023 | 18.89° C | 100% | 1014.7 hPa | - | - | - | - |
| 1778146474 | 18.89° C | 100% | 1014.7 hPa | - | - | - | - |
| 1778145574 | 18.89° C | 100% | 1014.9 hPa | - | - | - | - |
| 1778144673 | 18.89° C | 100% | 1014.9 hPa | - | - | - | - |
| 1778143773 | 19.44° C | 100% | 1014.7 hPa | - | - | - | - |
| 1778142873 | 20° C | 100% | 1014.7 hPa | - | - | - | - |
| 1778141973 | 20° C | 100% | 1014.8 hPa | - | - | - | - |
| 1778141073 | 19.44° C | 100% | 1014.9 hPa | - | - | - | - |
| 1778140173 | 18.89° C | 100% | 1014.7 hPa | - | - | - | - |
| 1778139272 | 18.89° C | 100% | 1014.6 hPa | - | - | - | - |
| 1778138372 | 18.33° C | 100% | 1014.6 hPa | - | - | - | - |
* Rain since midnight (hover to see other rain measurements)
** Current wind speed in m/s (hover to see current wind gust speed)